Weather History for Hato Airport, Curacao, Curacao

Change the Weather History Date:

Friday, October 12, 2012

  Actual Average Record
Temperature  
Mean Temperature 84 °F -  
Max Temperature 90 °F 87 °F - ()
Min Temperature 77 °F 77 °F - ()
Cooling Degree Days 18    
Growing Degree Days 34 (Base 50)    
Moisture  
Dew Point 75 °F    
Average Humidity 78    
Maximum Humidity 94    
Minimum Humidity 62    
Precipitation  
Precipitation 0.00 in 0.12 in - ()
Sea Level Pressure  
Sea Level Pressure 29.82 in    
Wind  
Wind Speed 6 mph ()    
Max Wind Speed 9 mph    
Max Gust Speed -    
Visibility 6.2 miles    
Events      
T = Trace of Precipitation, MM = Missing Value Source: Averaged Metar Reports

Daily Weather History Graph

Daily Weather History Graph

Search for Another Location

Airport:

Trip Planner

Search our weather history database for the weather conditions in past years. The results will help you decide how hot, cold, wet, or windy it might be!

Date:

Astronomy

Oct. 12, 2012 Rise Set
Actual Time 6:25 AM AST 6:18 PM AST
Civil Twilight 6:04 AM AST 6:40 PM AST
Nautical Twilight 5:39 AM AST 7:04 PM AST
Astronomical Twilight 5:14 AM AST 7:29 PM AST
Moon 3:34 AM AST (10/12) 4:03 PM AST (10/12)
Length of Visible Light 12h 35m
Length of Day
11h 53m
Waning Crescent, 11% of the Moon is Illuminated
Oct 12
Waning Crescent
Oct 15
New
Oct 21
First Quarter
Oct 29
Full
Nov 6
Last Quarter

Hourly Weather History & Observations

Time (AST) Temp. Heat Index Dew Point Humidity Pressure Visibility Wind Dir Wind Speed Gust Speed Precip Events Conditions
12:00 AM 80.6 °F 86.2 °F 75.2 °F 84% 29.86 in 6.2 mi East 9.2 mph - N/A   Partly Cloudy
1:00 AM 80.6 °F 86.2 °F 75.2 °F 84% 29.83 in 6.2 mi ESE 5.8 mph - N/A   Partly Cloudy
2:00 AM 80 °F - 75 °F 79% 29.82 in 31 mi ESE 5.8 mph - -   Partly Cloudy
2:00 AM 80.6 °F 86.2 °F 75.2 °F 84% 29.80 in 6.2 mi ESE 6.9 mph - N/A   Scattered Clouds
3:00 AM 78.8 °F - 75.2 °F 89% 29.80 in 6.2 mi ESE 5.8 mph - N/A   Scattered Clouds
4:00 AM 78.8 °F - 75.2 °F 89% 29.80 in 6.2 mi ESE 4.6 mph - N/A   Partly Cloudy
5:00 AM 78 °F - 74 °F 84% 29.79 in 31 mi SE 3.5 mph - -   Scattered Clouds
5:00 AM 77.0 °F - 73.4 °F 89% 29.77 in 6.2 mi SE 3.5 mph - N/A   Partly Cloudy
6:00 AM 77.0 °F - 75.2 °F 94% 29.80 in 6.2 mi ESE 3.5 mph - N/A   Partly Cloudy
7:00 AM 80.6 °F 87.1 °F 77.0 °F 89% 29.83 in 6.2 mi Variable 3.5 mph - N/A   Scattered Clouds
8:00 AM 83 °F - 76 °F 74% 29.86 in 31 mi ENE 6.9 mph - -   Scattered Clouds
8:00 AM 84.2 °F 92.3 °F 75.2 °F 74% 29.86 in 6.2 mi ENE 4.6 mph - N/A   Scattered Clouds
9:00 AM 86.0 °F 96.9 °F 77.0 °F 74% 29.86 in 6.2 mi ENE 4.6 mph - N/A   Partly Cloudy
10:00 AM 86.0 °F 95.1 °F 75.2 °F 70% 29.86 in 6.2 mi ENE 4.6 mph - N/A   Partly Cloudy
11:00 AM 87 °F - 76 °F 62% 29.87 in 31 mi NE 6.9 mph - -   Scattered Clouds
11:00 AM 87.8 °F 99.7 °F 77.0 °F 70% 29.86 in 6.2 mi NE 6.9 mph - N/A   Partly Cloudy
1:00 PM 89.6 °F 99.8 °F 75.2 °F 62% 29.80 in 6.2 mi SSW 5.8 mph - N/A   Partly Cloudy
2:00 PM 86 °F - 76 °F 66% 29.79 in 31 mi NE 5.8 mph - -   Partly Cloudy
2:00 PM 86.0 °F 95.1 °F 75.2 °F 70% 29.80 in 6.2 mi NE 5.8 mph - N/A   Scattered Clouds
3:00 PM 86.0 °F 95.1 °F 75.2 °F 70% 29.77 in 6.2 mi NE 5.8 mph - N/A   Scattered Clouds
4:00 PM 86.0 °F 95.1 °F 75.2 °F 70% 29.77 in 6.2 mi NE 8.1 mph - N/A   Partly Cloudy
5:00 PM 85 °F - 74 °F 64% 29.77 in 31 mi NE 6.9 mph - -   Scattered Clouds
5:00 PM 84.2 °F 92.3 °F 75.2 °F 74% 29.77 in 6.2 mi ENE 6.9 mph - N/A   Partly Cloudy
6:00 PM 82.4 °F 89.5 °F 75.2 °F 79% 29.77 in 6.2 mi ENE 4.6 mph - N/A   Partly Cloudy
7:00 PM 82.4 °F 89.5 °F 75.2 °F 79% 29.77 in 6.2 mi NE 6.9 mph - N/A   Partly Cloudy
8:00 PM 82 °F - 76 °F 79% 29.81 in 31 mi NE 9.2 mph - -   Scattered Clouds
8:00 PM 82.4 °F 90.9 °F 77.0 °F 84% 29.80 in 6.2 mi NE 9.2 mph - N/A   Partly Cloudy
9:00 PM 82.4 °F 90.9 °F 77.0 °F 84% 29.83 in 6.2 mi NE 9.2 mph - N/A   Partly Cloudy
10:00 PM 82.4 °F 89.5 °F 75.2 °F 79% 29.86 in 6.2 mi ENE 8.1 mph - N/A   Partly Cloudy
11:00 PM 82 °F - 76 °F 76% 29.86 in 31 mi ENE 5.8 mph - -   Scattered Clouds
11:00 PM 82.4 °F 89.5 °F 75.2 °F 79% 29.86 in 6.2 mi ENE 5.8 mph - N/A   Partly Cloudy